THORAD AGENA D DEB, 5446

Orbit data source: Space-Track

THORAD AGENA D DEB, 5446 is space debris in SSO originally from a launch on Wed, 08 Apr 1970 UTC launched from the Air Force Western Test Range (AFWTR). Debris objects in space refer to the collection of defunct objects orbiting the Earth. Examples of debris include non-operational satellites, rocket bodies, and fragments generated from explosions, collisions, or faulty payload assembly.

Loading next visibility...
Identifier
5446, 1970-025LE
Orbit
SSO
Country
Flag of USUS
Related business
Manufacturer
Unknown
Mission
Spacecraft
Bus & Motor
Unknown
Mass
Unknown
Launch date (UTC)
1970-04-08 (56 years ago)
Launch vehicle
Unknown
Launch site
Air Force Western Test Range (AFWTR)
Object type
Payload
Rocket body
Debris
Shape & HBR
Unknown shape, 0.1 m
Radar Cross Section
Small (<0.1 m²)

Expand to show TLE details & history
Last TLE update: 20 hours ago

TLE from 20 hours ago
0 THORAD AGENA D DEB
1  5446U 70025LE  25308.51551059  .00001717  00000-0  18048-2 0  9991
2  5446 100.4716 151.9107 0084105  96.3022 294.6713 13.75028882744780
Epoch: 2025-11-04T12:22Z
TLE epoch observation values (Epoch: 2025-11-04T12:22:20.114Z)
Latitude
29.59268°
Longitude
-83.66815°
Altitude
959.74 km
Speed
7.387 km/s
True Right ascension
09h 43m 40s
True Declination
29° 26' 57"
Sunlit
Object was in daylight at epoch
Visualization orbit readout
Latitude
Unknown
Longitude
Unknown
Altitude
Unknown
Speed
Unknown
Apparent Right ascension
Unknown
Apparent Declination
Unknown
Sunlit
N/A
Visualization observer readout
Local Sidereal Time
04:11:06
Azimuth
Unknown
Elevation
Unknown
Doppler factor
Unknown
Orbital elements
Apogee altitude
1,040.757 km
Perigee altitude
917.005 km
Semi-major axis
7,357.018 km
Eccentricity
0.00841
Inclination
100.4716°
RAAN
151.9107°
Arg. of periapsis
96.3022°
True anomaly
293.79168°
Mean anomaly
294.6713°
Eccentric anomaly
294.23187°
Mean motion
3.43946 °/min
Orbital period
104.67 mins
BSTAR
0.0018048
Loading maneuver chart data...
Computing Atmospheric mass density...

Documentation

Showing up to 5 results
|